TITAN 3C TRANSTAGE DEB, 26782

Orbit data source: Space-Track

TITAN 3C TRANSTAGE DEB, 26782 is space debris originally from a launch on Tue, 21 Dec 1965 UTC launched from the Air Force Eastern Test Range (AFETR). Debris objects in space refer to the collection of defunct objects orbiting the Earth. Examples of debris include non-operational satellites, rocket bodies, and fragments generated from explosions, collisions, or faulty payload assembly.

Loading next visibility...
Identifier
26782, 1965-108BA
Orbit
Active
Country
Flag of USUS
Related business
Manufacturer
Unknown
Mission
Spacecraft
Bus & Motor
Unknown
Mass
Unknown
Launch date (UTC)
1965-12-21 (60 years ago)
Launch vehicle
Unknown
Launch site
Air Force Eastern Test Range (AFETR)
Object type
Payload
Rocket body
Debris
Shape & HBR
Unknown shape, 0.3 m
Radar Cross Section
Medium (>0.1 m² and <1 m²)

Expand to show TLE details & history
Last TLE update: 3 days ago

TLE from 3 days ago
0 TITAN 3C TRANSTAGE DEB
1 26782U 65108BA  26032.07512806  .00038778 -17556-5  15937-2 0  9997
2 26782  26.4509 336.3606 2852567 262.8177  64.3643  9.66025255399870
Epoch: 2026-02-01T01:48Z
TLE epoch observation values (Epoch: 2026-02-01T01:48:11.064Z)
Latitude
-0°
Longitude
178.02452°
Altitude
2,493.772 km
Speed
6.861 km/s
True Right ascension
22h 25m 26s
True Declination
0° 00' 00"
Sunlit
Object was in daylight at epoch
Visualization orbit readout
Latitude
Unknown
Longitude
Unknown
Altitude
Unknown
Speed
Unknown
Apparent Right ascension
Unknown
Apparent Declination
Unknown
Sunlit
N/A
Visualization observer readout
Local Sidereal Time
21:41:03
Azimuth
Unknown
Elevation
Unknown
Doppler factor
Unknown
Orbital elements
Apogee altitude
5,595.947 km
Perigee altitude
280.763 km
Semi-major axis
9,316.492 km
Eccentricity
0.28526
Inclination
26.4509°
RAAN
336.3606°
Arg. of periapsis
262.8177°
True anomaly
97.23035°
Mean anomaly
64.3643°
Eccentric anomaly
80.48337°
Mean motion
2.4136 °/min
Orbital period
149.16 mins
BSTAR
0.0015937
Loading maneuver chart data...
Computing Atmospheric mass density...

Documentation

Showing up to 5 results
|